Wind_Speed
15 16 17 18 18 19 19 19 19 20 20 20 20 19 18 17 17 17 17 17 18 18 19 20 19 19 19 20 22 21 21 21 22 23 23 22 23 25 25 24 24 24 25 25
14 15 16 16 17 18 18 19 19 21 21 21 20 18 18 18 17 17 17 18 19 20 20 20 20 20 20 21 22 23 22 22 22 23 23 23 24 25 24 25 26 26 27 27
13 14 15 15 16 16 17 17 18 20 21 20 20 19 19 20 20 19 18 19 20 21 21 21 20 21 21 22 22 23 23 23 24 24 25 25 25 25 25 26 26 27 28 28
13 13 14 14 14 15 16 16 17 18 19 19 20 20 19 19 19 19 20 20 21 21 21 21 21 21 22 22 23 23 23 24 25 25 26 26 27 26 27 28 28 28 28 28
12 12 12 13 13 14 15 16 17 17 18 19 19 19 18 18 18 18 19 20 21 22 22 22 22 23 23 23 23 23 23 24 25 27 27 27 27 27 28 28 29 28 28 28
11 11 11 12 13 14 14 15 16 17 18 19 19 20 18 18 18 19 20 21 22 22 22 23 23 23 23 22 23 24 24 25 25 26 26 26 26 26 27 27 28 28 28 28
11 11 12 12 13 13 14 15 16 17 18 19 19 20 19 19 19 20 20 21 21 22 22 22 22 23 23 23 23 24 24 25 25 25 26 26 25 25 26 27 27 27 27 28
11 11 12 13 14 14 15 16 17 18 19 19 19 20 19 19 20 20 20 21 21 21 21 22 23 23 23 24 24 24 23 23 24 24 24 24 24 24 25 25 26 27 27 28
11 12 12 14 15 15 16 16 17 19 19 19 19 18 18 19 20 20 20 20 20 21 21 22 23 23 24 24 24 24 23 22 22 22 22 23 22 23 24 24 25 25 26 26
12 13 13 14 15 15 16 17 17 18 19 19 18 18 18 18 19 20 21 22 22 22 22 22 22 23 24 24 24 23 22 22 22 21 21 21 20 21 22 22 23 24 24 24
13 13 14 15 15 16 16 17 17 17 18 19 19 18 19 20 21 21 21 21 21 22 22 22 22 23 23 22 22 23 22 21 21 21 20 19 19 20 21 22 22 22 21 21
13 14 14 15 15 16 17 17 17 18 18 19 20 19 19 19 20 20 20 20 21 21 22 22 21 21 21 21 21 22 21 20 20 19 19 19 19 19 20 19 19 19 19 20
13 14 14 14 15 15 16 17 17 18 18 19 19 18 18 18 19 19 20 20 20 21 21 21 20 20 20 20 20 19 19 19 19 18 17 17 17 17 17 17 18 18 18 18
15 15 15 16 16 15 16 16 16 17 18 18 18 18 18 18 19 19 20 19 20 20 20 19 19 19 19 19 19 18 17 17 17 16 15 15 15 15 16 16 16 17 17 16
16 16 16 16 16 16 15 15 16 16 18 19 18 18 18 19 20 20 19 19 20 20 20 19 18 18 17 17 16 16 16 15 14 14 14 14 14 15 15 15 15 16 15 15
16 16 16 15 15 16 16 16 16 17 18 19 18 18 18 19 19 19 19 19 19 19 19 19 18 17 17 16 15 15 14 13 12 12 13 13 14 14 14 14 14 14 14 14
16 16 16 15 15 14 14 14 15 16 16 17 17 17 17 17 18 18 18 18 19 19 18 18 17 17 16 15 15 13 12 12 11 11 12 12 12 12 13 13 13 13 12 12
16 16 16 15 14 14 13 13 14 15 16 16 15 16 16 16 16 16 16 16 17 17 16 16 16 15 15 13 12 11 11 11 10 10 11 11 11 12 12 13 13 12 11 10
15 15 14 14 15 14 13 13 13 14 14 14 14 14 15 15 14 14 14 14 15 14 15 15 14 13 12 11 10 9 9 8 8 8 9 9 10 10 11 11 11 10 9 9
14 14 14 14 15 14 12 12 13 13 12 12 12 13 13 13 13 13 13 13 13 13 13 12 11 10 9 8 7 7 7 7 7 7 8 8 9 9 10 10 10 9 9 9
13 13 13 13 13 12 12 12 12 11 11 11 11 11 12 12 12 12 12 12 12 11 11 10 9 7 7 6 6 6 6 6 6 6 7 7 7 8 8 8 9 8 8 8
13 13 12 12 12 11 11 11 10 10 10 10 10 10 11 11 11 11 11 10 10 9 9 8 7 6 6 6 5 5 5 5 5 5 5 6 6 7 8 8 8 8 7 8
13 12 12 12 11 10 10 10 9 9 9 9 9 10 10 10 10 9 9 9 8 8 8 7 6 6 6 5 5 4 4 4 4 4 5 5 6 6 7 7 8 8 8 8
13 12 12 11 10 10 9 8 8 8 8 8 9 9 9 8 8 8 8 8 8 7 7 6 6 6 5 4 4 4 4 4 4 5 5 6 6 6 7 7 8 8 8 8
13 12 12 10 9 9 8 7 7 8 7 7 7 7 8 8 8 8 7 7 7 7 7 6 6 5 4 4 4 4 4 5 5 5 6 6 6 6 7 7 8 8 8 9
12 12 11 10 8 8 7 6 6 6 5 5 5 6 7 8 8 7 7 7 7 7 7 7 6 5 5 5 5 5 5 5 5 5 6 6 6 6 6 6 7 8 8 8
Wind_Direction
201 203 207 209 212 219 225 230 233 238 244 249 251 255 260 265 267 272 276 279 284 291 292 292 291 288 289 288 288 289 290 292 292 293 287 285 285 284 284 284 285 287 288 287
202 206 211 216 220 225 230 233 237 241 246 250 252 256 261 263 268 276 280 281 285 289 293 292 291 290 292 292 291 289 289 291 292 291 286 285 285 285 284 284 285 287 287 286
204 211 216 222 227 232 234 238 240 241 244 251 256 262 266 267 271 275 281 283 284 288 291 293 292 291 292 294 293 292 289 290 291 291 289 285 284 284 286 287 288 288 287 286
208 215 220 226 232 237 237 240 243 244 249 257 262 266 268 271 273 278 282 284 285 287 290 292 293 291 292 293 294 293 292 291 292 291 291 287 285 284 286 288 289 290 290 287
214 219 224 229 235 240 241 242 245 250 256 261 267 272 273 276 278 282 285 286 287 287 290 292 292 292 292 291 292 293 295 294 292 291 291 292 287 286 287 288 290 290 290 287
222 220 226 232 237 241 242 247 252 255 262 266 271 276 278 281 282 284 287 288 289 289 290 290 289 289 292 292 293 294 296 294 293 293 293 294 290 289 289 290 290 290 288 287
223 226 229 235 237 242 247 254 259 262 266 273 275 279 286 287 288 288 288 289 289 289 289 289 292 293 293 292 292 293 294 294 294 294 295 296 292 293 292 292 291 290 288 287
229 230 237 242 245 250 255 261 266 270 275 279 280 285 289 290 291 289 287 287 289 290 289 289 289 290 291 291 291 291 293 296 295 295 296 297 295 294 294 293 293 291 289 287
236 235 243 250 254 258 264 267 272 277 280 283 285 287 288 290 289 288 288 288 290 289 289 288 288 288 290 289 290 291 293 294 295 296 297 298 295 296 297 296 295 293 291 288
242 243 247 253 258 263 268 273 276 277 282 286 287 289 290 290 289 290 290 290 291 290 289 288 289 290 289 289 290 293 294 295 298 297 298 299 298 300 302 302 300 298 296 293
248 251 252 258 260 265 268 273 276 278 280 285 288 291 291 290 289 291 292 291 291 291 291 292 291 291 290 289 289 292 294 296 299 299 298 299 300 303 304 304 303 303 301 298
257 259 259 260 262 266 269 274 277 278 280 284 289 293 292 291 291 292 294 293 293 292 292 291 290 290 288 289 289 291 293 295 298 300 298 299 300 303 305 305 307 308 305 301
261 264 264 264 268 271 274 277 278 278 281 286 290 295 294 293 293 294 295 294 293 292 292 293 291 288 289 291 291 291 292 296 298 299 301 301 302 303 306 308 309 312 310 304
267 269 270 272 275 279 277 277 279 279 283 288 292 293 293 294 294 295 296 295 294 295 297 296 295 295 294 294 293 291 292 295 298 299 301 302 304 307 310 311 312 314 314 311
267 270 272 274 275 278 277 276 278 281 285 290 293 294 294 293 294 295 297 296 297 298 298 297 297 296 297 297 299 294 294 295 297 299 301 303 305 309 314 317 316 315 315 315
265 270 272 274 276 279 278 277 277 281 285 289 290 293 293 293 295 296 297 297 299 300 299 296 296 296 296 297 299 300 299 300 300 301 303 305 307 309 313 316 319 319 319 319
264 271 275 278 279 281 280 279 280 284 287 289 290 293 295 296 297 298 299 299 300 302 300 298 297 297 297 298 298 299 298 299 299 299 302 306 309 313 317 320 324 326 326 323
263 269 274 276 278 280 285 283 285 287 288 289 293 296 298 300 301 301 302 303 304 303 303 302 300 300 300 297 297 298 300 300 302 304 305 308 312 316 320 324 327 332 334 331
264 268 271 274 276 280 283 286 289 291 290 292 296 299 302 303 303 304 306 308 310 309 309 308 304 302 302 300 298 299 303 305 306 307 309 314 319 322 324 328 332 336 337 336
265 268 270 272 275 280 282 288 291 292 292 298 302 304 307 309 309 309 310 312 314 314 313 313 310 308 307 306 304 303 306 310 312 313 318 323 327 328 327 331 338 339 340 344
260 264 268 271 274 278 283 288 292 294 300 305 309 310 312 314 315 315 314 314 315 316 317 318 320 320 320 319 315 311 309 316 322 325 327 333 337 337 337 341 347 349 349 351
257 261 266 270 273 277 281 285 291 299 304 308 313 316 318 320 322 323 323 323 322 324 326 328 327 329 331 331 328 323 322 327 334 336 340 344 349 345 350 355 358 1 1 360
256 261 263 267 271 276 281 284 291 300 307 311 313 316 321 325 328 332 336 337 336 336 337 339 341 342 342 344 347 350 351 353 0 356 353 354 358 359 358 359 4 7 6 2
252 254 258 262 267 272 277 285 293 301 306 310 319 322 327 331 334 338 344 347 348 347 351 355 357 356 359 3 4 7 11 19 15 7 2 5 10 11 2 2 5 9 9 6
247 249 253 257 260 265 276 284 292 300 309 313 325 334 338 340 341 344 351 355 358 1 5 3 3 9 15 18 14 17 17 10 5 6 8 13 14 12 13 11 10 11 11 12
241 246 250 252 253 257 267 279 292 303 315 321 331 340 345 350 352 357 2 6 7 10 15 19 21 28 31 27 26 24 24 22 17 14 17 15 17 16 15 11 9 9 9 10
Height
5836 5839 5841 5843 5846 5848 5850 5852 5854 5855 5856 5858 5859 5859 5860 5860 5859 5859 5859 5858 5858 5857 5856 5855 5854 5853 5852 5850 5849 5847 5845 5844 5842 5840 5839 5838 5837 5836 5834 5833 5832 5830 5828 5827
5837 5839 5841 5843 5845 5847 5849 5851 5852 5854 5854 5855 5856 5856 5857 5857 5857 5857 5856 5855 5854 5854 5853 5851 5850 5848 5847 5845 5844 5842 5840 5839 5837 5836 5835 5833 5831 5830 5828 5827 5826 5824 5822 5821
5837 5839 5840 5842 5844 5846 5847 5849 5851 5852 5852 5852 5853 5854 5854 5854 5854 5853 5852 5852 5851 5850 5849 5847 5846 5844 5842 5840 5839 5837 5835 5834 5832 5831 5829 5828 5826 5824 5822 5821 5819 5817 5815 5814
5837 5838 5840 5842 5843 5845 5846 5847 5848 5849 5849 5849 5851 5851 5851 5850 5850 5849 5849 5848 5847 5846 5844 5843 5841 5839 5838 5836 5834 5832 5830 5828 5827 5825 5823 5821 5819 5817 5816 5814 5812 5810 5807 5806
5836 5838 5839 5841 5842 5843 5844 5845 5846 5846 5846 5847 5847 5847 5848 5847 5846 5846 5844 5844 5842 5841 5840 5838 5836 5834 5833 5831 5829 5827 5825 5824 5821 5819 5817 5815 5813 5811 5809 5807 5804 5802 5800 5799
5836 5837 5839 5840 5841 5842 5842 5843 5843 5844 5844 5844 5844 5843 5844 5843 5842 5841 5840 5838 5837 5835 5834 5832 5830 5829 5828 5826 5824 5822 5820 5818 5816 5813 5811 5809 5807 5804 5802 5799 5797 5795 5793 5791
5836 5837 5838 5839 5839 5840 5841 5842 5842 5841 5841 5841 5840 5839 5840 5838 5837 5836 5835 5833 5832 5830 5828 5827 5825 5824 5822 5821 5819 5817 5815 5812 5810 5807 5805 5802 5799 5797 5795 5792 5790 5788 5786 5784
5834 5836 5836 5837 5838 5838 5838 5839 5839 5839 5838 5837 5836 5835 5836 5834 5832 5831 5829 5828 5827 5825 5824 5822 5821 5819 5817 5815 5813 5811 5809 5806 5804 5801 5798 5796 5793 5791 5788 5786 5783 5781 5778 5776
5833 5834 5835 5835 5835 5836 5835 5835 5836 5835 5834 5833 5832 5832 5831 5829 5827 5826 5824 5823 5822 5821 5819 5817 5816 5814 5812 5809 5807 5805 5803 5800 5798 5795 5792 5790 5787 5784 5782 5779 5776 5774 5771 5769
5831 5832 5832 5832 5832 5833 5833 5832 5832 5831 5830 5829 5828 5828 5827 5825 5823 5822 5820 5818 5817 5815 5814 5812 5810 5808 5806 5803 5801 5799 5797 5794 5792 5789 5787 5784 5781 5779 5776 5773 5770 5768 5765 5762
5828 5829 5830 5829 5829 5829 5829 5829 5828 5827 5826 5825 5824 5826 5823 5821 5819 5817 5815 5813 5812 5810 5808 5806 5804 5802 5799 5797 5795 5793 5791 5789 5786 5784 5782 5779 5776 5774 5771 5768 5765 5762 5759 5756
5825 5826 5826 5826 5826 5825 5825 5825 5824 5824 5823 5821 5820 5822 5818 5816 5814 5812 5811 5809 5807 5805 5803 5801 5799 5796 5794 5792 5790 5788 5786 5784 5781 5779 5776 5774 5771 5769 5766 5763 5760 5757 5754 5751
5822 5823 5823 5823 5824 5823 5821 5821 5820 5820 5819 5817 5816 5818 5813 5811 5809 5808 5806 5804 5802 5800 5798 5796 5793 5791 5789 5787 5785 5783 5781 5779 5776 5774 5771 5769 5767 5765 5762 5759 5756 5753 5750 5747
5819 5819 5820 5820 5819 5818 5818 5817 5816 5816 5814 5813 5812 5811 5809 5807 5805 5803 5801 5799 5797 5795 5793 5790 5788 5786 5784 5782 5780 5778 5776 5774 5771 5769 5767 5765 5763 5761 5758 5755 5752 5750 5747 5744
5816 5816 5815 5815 5815 5814 5814 5813 5812 5811 5810 5809 5808 5806 5805 5803 5801 5799 5796 5794 5793 5790 5788 5786 5783 5781 5779 5777 5775 5773 5771 5769 5767 5765 5763 5761 5759 5757 5755 5752 5749 5746 5744 5741
5812 5812 5812 5811 5811 5810 5810 5809 5809 5808 5806 5805 5804 5803 5801 5798 5796 5794 5792 5790 5788 5786 5783 5781 5779 5777 5775 5773 5771 5769 5767 5765 5763 5762 5760 5758 5756 5754 5752 5749 5747 5744 5741 5739
5808 5808 5808 5807 5807 5806 5806 5806 5805 5804 5802 5801 5800 5799 5796 5794 5792 5790 5788 5786 5783 5781 5778 5776 5774 5772 5770 5769 5767 5765 5764 5762 5760 5759 5757 5755 5753 5751 5749 5747 5744 5742 5739 5737
5804 5804 5804 5804 5804 5803 5805 5802 5801 5800 5799 5797 5796 5794 5792 5790 5788 5786 5784 5781 5779 5776 5774 5772 5770 5768 5766 5765 5763 5762 5760 5759 5757 5756 5754 5753 5751 5749 5747 5744 5742 5740 5737 5735
5801 5801 5800 5800 5799 5799 5800 5799 5798 5796 5795 5794 5792 5790 5788 5786 5784 5782 5780 5777 5775 5772 5770 5768 5766 5764 5762 5761 5760 5759 5757 5756 5755 5753 5752 5750 5748 5747 5745 5742 5740 5738 5736 5734
5797 5797 5797 5796 5795 5796 5797 5796 5794 5794 5792 5791 5789 5787 5785 5782 5781 5779 5776 5773 5771 5769 5767 5765 5762 5761 5759 5758 5757 5756 5755 5754 5752 5751 5749 5748 5746 5744 5743 5741 5739 5737 5735 5733
5793 5793 5793 5792 5792 5792 5793 5792 5791 5791 5791 5788 5785 5783 5781 5779 5778 5776 5772 5770 5768 5766 5764 5762 5760 5759 5757 5756 5755 5754 5753 5752 5750 5749 5748 5746 5745 5743 5741 5740 5738 5736 5735 5733
5790 5790 5790 5789 5789 5791 5789 5788 5788 5788 5786 5784 5782 5781 5779 5777 5774 5772 5769 5767 5765 5763 5761 5760 5758 5757 5756 5755 5753 5752 5751 5750 5749 5748 5747 5745 5744 5743 5741 5739 5738 5736 5735 5733
5786 5787 5787 5787 5789 5788 5787 5786 5785 5784 5783 5782 5780 5778 5776 5774 5772 5770 5767 5765 5763 5761 5760 5759 5757 5756 5755 5754 5753 5752 5750 5749 5748 5748 5746 5745 5744 5742 5741 5739 5738 5736 5735 5733
5783 5783 5783 5784 5784 5784 5784 5783 5783 5782 5781 5780 5778 5776 5775 5773 5771 5768 5766 5764 5762 5761 5759 5758 5757 5756 5755 5753 5753 5752 5751 5749 5748 5748 5747 5745 5744 5742 5741 5740 5738 5737 5735 5734
5779 5779 5780 5780 5782 5782 5782 5781 5781 5780 5779 5778 5777 5775 5773 5771 5769 5767 5765 5763 5762 5760 5759 5758 5756 5755 5755 5754 5753 5752 5751 5750 5749 5748 5747 5745 5744 5743 5742 5740 5739 5738 5736 5735
5775 5777 5777 5778 5780 5780 5780 5780 5780 5779 5778 5777 5775 5774 5772 5770 5768 5766 5765 5763 5762 5760 5759 5758 5757 5756 5755 5754 5754 5753 5752 5751 5750 5749 5748 5746 5745 5744 5743 5741 5740 5739 5737 5736